Regional Weather Roundup
Issued by NWS

Home | Current Version | Previous Version | Text Only | Print | Product List | Glossary On
Versions: 1 2 3 4 5 6 7 8 9 10 11 12 13 14 15 16 17 18 19 20 21 22 23 24 25 26 27 28 29 30 31 32 33 34 35 36 37 38 39 40 41 42 43 44 45 46 47 48 49 50
552
ASUS45 KPSR 201310
RWRAZ

ARIZONA HOURLY REGIONAL WEATHER ROUNDUP
NATIONAL WEATHER SERVICE PHOENIX AZ
600 AM MST SAT JAN 20 2018

NOTE: FAIR INDICATES FEW OR NO CLOUDS BELOW 12,000 FEET WITH NO
SIGNIFICANT WEATHER AND/OR OBSTRUCTIONS TO VISIBILITY.

AZZ001>003-036-201400-
NORTHWEST ARIZONA

CITY           SKY/WX    TMP DP  RH WIND       PRES   REMARKS
BULLHEAD CITY  CLOUDY    61  34  36 SW12G18   29.77R
KINGMAN        CLOUDY    50  35  56 SW18      29.79R
$$

AZZ004>008-015-016-018-201400-
NORTH CENTRAL ARIZONA

CITY           SKY/WX    TMP DP  RH WIND       PRES   REMARKS
GRAND CANYON   CLOUDY    40  23  50 SW6       29.81F
WILLIAMS       MIX PCPN  41  21  45 S14       29.81R
PRESCOTT       CLOUDY    49  25  39 S15       29.82R
FLAGSTAFF      CLOUDY    39  21  48 S15G23    29.85F WCI  31
PAYSON         CLOUDY    46  19  34 S6G12     29.90F
PAGE           CLOUDY    48  23  37 SE10      29.74S
$$

AZZ009>014-017-201400-
NORTHEAST ARIZONA

CITY           SKY/WX    TMP DP  RH WIND       PRES   REMARKS
WINSLOW        PTCLDY    34  15  46 SE9       29.86F WCI  27
SAINT JOHNS    PTCLDY    25  11  55 NE3       29.92S
WINDOW ROCK    CLEAR     35  13  40 E7        29.95R WCI  29
SHOW LOW       CLEAR     45  16  31 S23G36    29.91S
$$

AZZ540-542>544-546-548-201400-
GREATER PHOENIX AREA

CITY           SKY/WX    TMP DP  RH WIND       PRES   REMARKS
PHOENIX        MOCLDY    58  28  32 SE12      29.80S
BUCKEYE        CLOUDY    48  32  53 CALM      29.83R
LUKE AFB       MOCLDY    50  33  51 SW3       29.81R
DEER VALLEY    CLOUDY    57  24  28 SE9       29.81R
SCOTTSDALE     CLOUDY    56  27  32 SE3       29.83S
MESA-GATEWAY   MOCLDY    55  25  30 SE9       29.85S
CHANDLER       MOCLDY    61  25  25 SE12      29.83
$$

AZZ539-553-201400-
SOUTHWEST MARICOPA COUNTY AND PINAL COUNTY

CITY           SKY/WX    TMP DP  RH WIND       PRES   REMARKS
CASA GRANDE    NOT AVBL
GILA BEND      FAIR      59  43  55 SW17G23   29.84R
$$

AZZ503-504-507>509-201400-
SOUTHEAST ARIZONA

CITY           SKY/WX    TMP DP  RH WIND       PRES   REMARKS
TUCSON         CLEAR     52  19  27 SE5       29.93S
DAVIS-MONTHAN  PTCLDY    49  19  29 SE7       29.91S
RYAN FIELD     CLEAR     54  23  30 E6        29.92
NOGALES        CLEAR     55  24  30 SE8       29.97R
SIERRA VISTA   CLEAR     51  19  28 S7        30.00R
DOUGLAS        CLEAR     45  20  36 CALM      29.99R
SAFFORD        CLEAR     43  17  35 SE3       29.93R
$$

AZZ532-201400-
SOUTHWEST ARIZONA

CITY           SKY/WX    TMP DP  RH WIND       PRES   REMARKS
YUMA           CLOUDY    57  35  43 W21G33    29.88R
$$

CAZ041-043-047-048-061-525>527-560>570-201400-
SOUTHERN CALIFORNIA

CITY           SKY/WX    TMP DP  RH WIND       PRES   REMARKS
DOWNTOWN L.A.  PTCLDY    52  30  43 VRB7      29.93R
L.A. AIRPORT   MOCLDY    54  31  41 NW12G18   29.94S
SAN DIEGO      MOCLDY    57  44  62 W13       29.99S
BURBANK        PTCLDY    50  31  48 NW9       29.93R
ONTARIO        CLOUDY    50  46  86 CALM      29.91R
RIVERSIDE      CLOUDY    50  48  93 NE3       29.92R
PALM SPRINGS   LGT RAIN  56  41  57 NW3       29.87R
EL CENTRO NAS  LGT RAIN  58  33  39 SW38G48   29.91R
IMPERIAL       CLEAR     58  33  39 N12       29.88S
BLYTHE         PTCLDY    56  34  43 SW10      29.84R
NEEDLES        MOCLDY    59  33  37 W14       29.81R
$$

NVZ020-UTZ003-201400-
SOUTHERN NEVADA-UTAH

CITY           SKY/WX    TMP DP  RH WIND       PRES   REMARKS
LAS VEGAS      MOCLDY    52  35  52 NW10G22   29.77R
SALT LAKE CITY LGT SNOW  32  30  92 NW9       29.89S FOG     WCI  24
$$

NMZ009-TXZ055-201400-
NEW MEXICO-WEST TEXAS

CITY           SKY/WX    TMP DP  RH WIND       PRES   REMARKS
ALBUQUERQUE    PTCLDY    31  14  49 NE3       29.99R
EL PASO        MOCLDY    37  19  48 CALM      29.98R
$$


........................KEY........................
SKY/WX - SKY CONDITION/WEATHER
TMP    - TEMPERATURE IN FAHRENHEIT
DP     - DEW POINT IN FAHRENHEIT
RH     - RELATIVE HUMIDITY IN PERCENT
WIND   - DIRECTION AND SPEED IN MILES PER HOUR (MPH)
VRB    - VARIABLE WIND DIRECTION
PRES   - MEAN SEA LEVEL PRESSURE IN INCHES OF MERCURY
         F - FALLING PRESSURE   R - RISING PRESSURE
         S - STEADY PRESSURE
VSB    - VISIBILITY IN MILES
HX     - HEAT INDEX IN FAHRENHEIT
WCI    - WIND CHILL INDEX IN FAHRENHEIT
TC     - TEMPERATURE IN CELSIUS WHICH IS ALSO KNOWN AS
         TEMPERATURE IN CENTIGRADE
AFB    - AIR FORCE BASE
         LUKE AFB IS LUKE AIR FORCE BASE
         DAVIS-MONTHAN IS DAVIS-MONTHAN AIR FORCE BASE
NAS    - NAVAL AIR STATION
         EL CENTRO NAS IS EL CENTRO NAVAL AIR STATION
N/A    - NOT AVAILABLE





USA.gov is the U.S. government's official web portal to all federal, state and local government web resources and services.